User: anonymous   Login
Location: Unspecified
(47.1700°N, 0.0000°E)
Time: 13:43:50
(UTC+00:00)
Language:

ITUPSAT 1 - Orbit

View from above orbital plane
View from above orbital plane
View from above satellite
View from above satellite

Ground track
Ground track

The orbit data is extracted from the following two-line orbital elements,

1 35935U 09051E   19236.75081534 +.00000045 +00000-0 +21530-4 0  9998
2 35935 098.6078 046.7312 0007587 338.8440 021.2442 14.55546604526362
Epoch (UTC): 24 August 2019 18:01:10
Eccentricity: 0.0007587
inclination: 98.6078°
perigee height: 702 km
apogee height: 713 km
right ascension of ascending node: 46.7312°
argument of perigee: 338.8440°
revolutions per day: 14.55546604
mean anomaly at epoch: 21.2442°
orbit number at epoch: 52636

The dashed part of the orbit path shows where the satellite is in the earth's shadow,  

DLR